2020-014C (45251 NORAD) Tracking and Keplerian Element Data

This shows tracking and keplerian element data for the satellite.

Feedback or suggestion? Click here.




ElementValue
Catalog45251
Name2020-014C
Epoch Orbit565
Epoch Day88.01703712
Epoch Year2020
RAAN205.5605
Inclination35.0077
Eccentricity0.0006339
Argument of Perigee271.0752
Mean Anonmoly88.9239
Mean Motion15.28891993
Decay Rate1.289E-05
L11 45251U 20014C 20088.01703712 .00001289 00000-0 46125-4 0 9995
L22 45251 35.0077 205.5605 0006339 271.0752 88.9239 15.28891993 5659

Live tracking and technical data element details for 2020-014C (NORAD 45251). 2020-014C can be tracked NOW for your location showing map with azimuth and elevation plus other details from your city location.

Track the satellite on the map from your city or location and see movement details for azimuth, elevation, latitude, longitude, range, height, and movement on the map or in text.







IsCatalogInMostPopularTable: catalog: 45251, numindb: 14
Update: records affected: 1



GetName: 45251 2020-014C

Hit Count: updated at: Sat, 28 Mar 2020 21:19:27 GMT